www.pogodaiklimat.ru

Погода и климат >> Архив погоды >> Корея >> Намвон


ПОГОДА в Намвоне

  • Прогноз погоды в Намвоне
  • Монитор погоды в Намвоне

АРХИВ ПОГОДЫ в Намвоне

Время (UTC), дата Ветер
(напр.,м/с)
 
Видим.   Явления Облачность Т
(С)
Тd
(С)
f
(%)
Тe
(С)
Тes
(С)
Комфортность P
(гПа)
Po
(гПа)
Тmin
(С)
Tmax
(С)
R
(мм)
R24
(мм)
S
(см)
21 9.09 13 км н/о +22.5 +22.4 99 +30 +30 очень
душно
1011.8 996.7
00 10.09 ЮВ 7 20 км ясно +27.0 +20.5 68 +34 +35 очень
душно
1012.8 997.9 +22.5 0.0
03 10.09 ЮВ 4 20 км 5/4 1000 м
[]
+29.2 +19.2 55 +35 +41 очень
душно
1012.7 997.9
06 10.09 ЮВ 3 20 км 8/8 1000 м
[]
+29.4 +19.9 57 +36 +40 очень
душно
1011.5 996.7
09 10.09 ЮВ 3 17 км 3/1
[]
+28.2 +20.2 62 +35 +35 очень
душно
1011.6 996.8
12 10.09 ЮВ 2 11 км 4/0
[]
+26.2 +20.7 72 +33 +33 очень
душно
1013.4 998.4 +30.4
15 10.09 4700 м н/о +22.6 +22.0 96 +30 +30 очень
душно
1014.3 999.1
18 10.09 5000 м 5/5 600 м
[]
+22.4 +21.8 96 +30 +30 очень
душно
1014.3 999.1
21 10.09 С 1 2900 м 8/6 1500 м
[]
+21.5 +21.4 99 +27 +27 душно 1014.8 999.5
00 11.09 С 1 7000 м 8/8 600 м
[]
+26.0 +22.6 82 +34 +38 очень
душно
1014.9 999.9 +21.4
03 11.09 Ю 2 18 км 4/1 1000 м
[]
+29.2 +20.6 60 +36 +48 очень
душно
1013.4 998.6
06 11.09 З 2 20 км 9/9 1000 м
[]
+30.5 +21.5 59 +39 +40 очень
душно
1012.2 997.4
09 11.09 19 км н/о +28.9 +21.1 63 +36 +36 очень
душно
1012.2 997.4
12 11.09 С 10 2200 м 8/8 600 м
[]
+24.3 +22.5 90 +32 +32 очень
душно
1014.2 999.2 +31.7 5
15 11.09 С 5 20 км 9// 600 м
[]
+23.1 +19.8 82 +30 +30 очень
душно
1015.0 999.9
18 11.09 С 5 20 км 8/8 600 м
[]
+22.5 +18.4 78 +28 +28 душно 1015.0 999.8 1
21 11.09 С 5 12 км 10/3 300 м
[]
+20.8 +19.4 92 +25 +25 комфорт 1015.7 1000.4
00 12.09 С 8 20 км ?/? +21.6 +18.5 83 +26 +26 душно 1016.5 1001.2 +20.5 2
03 12.09 С 4 17 км 10// 600 м
[]
+21.5 +18.2 81 +26 +31 душно 1016.4 1001.1
06 12.09 С 5 9000 м ?/? +19.0 +17.3 90 +20 +23 1015.3 1000.0 0.9
09 12.09 С 5 20 км 9// 1000 м
[]
+19.7 +15.9 79 +22 +22 комфорт 1015.2 999.8
12 12.09 С 9 20 км 8/8 1000 м
[]
+19.7 +15.5 77 +21 +21 комфорт 1016.0 1000.6 +23.2 1
15 12.09 20 км н/о +19.9 +15.1 74 +22 +22 комфорт 1015.1 999.7
18 12.09 С 3 20 км ?/? +19.9 +15.1 74 +22 +22 комфорт 1014.5 999.1
21 12.09 20 км н/о +18.9 +14.7 77 +20 +20 1014.2 998.9
00 13.09 С 9 20 км 3/0
[]
+22.5 +15.0 63 +26 +27 жарко 1014.1 998.9 +18.7 0.0
03 13.09 С 2 20 км 3/0
[]
+26.4 +14.4 48 +29 +42 жарко 1012.8 997.8
06 13.09 С 4 20 км 5/0
[]
+27.4 +15.4 48 +30 +35 жарко 1010.9 996.0
09 13.09 С 3 20 км 6/1 1500 м
[]
+25.5 +14.9 52 +28 +28 жарко 1011.7 996.7
12 13.09 С 3 20 км 4/4 1500 м
[]
+21.7 +16.4 72 +26 +26 душно 1013.1 997.9 +28.1
15 13.09 СВ 2 20 км ясно +20.0 +16.2 79 +23 +23 комфорт 1013.0 997.6
18 13.09 С 3 20 км ясно +17.9 +16.2 90 +18 +18 1012.8 997.4
21 13.09 СЗ 1 20 км ясно +16.7 +16.0 96 +18 +18 1013.1 997.6
00 14.09 ЮВ 1 20 км 6/0
[]
+22.6 +16.8 70 +27 +32 душно 1013.3 998.2 +16.6
03 14.09 20 км н/о +25.2 +17.8 64 +30 +31 душно 1011.7 996.6
06 14.09 З 2 20 км 8/0
[]
+29.0 +18.4 53 +34 +40 очень
душно
1009.5 994.7
09 14.09 З 1 20 км 8/4 2000 м
[]
+26.6 +19.2 64 +32 +32 очень
душно
1009.8 994.9
12 14.09 С 1 17 км ?/? +23.8 +20.1 80 +29 +29 душно 1011.8 996.8 +29.5
15 14.09 штиль 0 11 км 8/1 2000 м
[]
+22.5 +19.8 85 +29 +29 очень
душно
1011.6 996.5
18 14.09 С 1 6000 м 9/0 2000 м
[]
+20.6 +20.4 99 +26 +26 душно 1010.5 995.2
21 14.09 6000 м н/о +19.9 +19.8 99 +24 +24 комфорт 1010.9 995.6
00 15.09 В 1 20 км 6/6 1000 м
[]
+23.7 +19.8 79 +29 +31 душно 1010.9 995.9 +19.9
03 15.09 СВ 1 20 км 6/1 600 м
[]
+28.0 +20.2 63 +34 +46 очень
душно
1009.5 994.7
06 15.09 СЗ 1 20 км 5/5 1000 м
[]
+30.0 +19.9 55 +36 +41 очень
душно
1007.5 992.8
09 15.09 20 км н/о +27.5 +19.8 63 +33 +34 очень
душно
1007.8 993.0
12 15.09 З 1 17 км 8/8 1000 м
[]
+24.7 +20.5 77 +31 +31 очень
душно
1009.9 994.8 +30.7
15 15.09 13 км н/о +23.6 +20.3 82 +29 +29 душно 1010.0 995.0
18 15.09 СЗ 1 6000 м 6/6 600 м
[]
+21.9 +20.7 93 +28 +28 душно 1009.0 993.9
21 15.09 3000 м н/о +20.7 +20.6 99 +25 +25 комфорт 1009.5 994.2
00 16.09 З 1 7000 м 9/9 300 м
[]
+22.8 +20.5 87 +30 +30 очень
душно
1010.6 995.5 +20.5
03 16.09 З 1 20 км 5/3 1000 м
[]
+26.9 +18.4 60 +32 +42 очень
душно
1009.1 994.2
06 16.09 С 2 20 км 8/8 1500 м
[]
+29.2 +17.3 49 +33 +37 очень
душно
1007.5 992.8
09 16.09 СЗ 3 20 км 6/6 1500 м
[]
+27.5 +16.7 52 +31 +31 душно 1008.5 993.7
12 16.09 С 2 20 км 3/0
[]
+23.2 +16.0 64 +28 +28 душно 1010.8 995.7 +30.1
15 16.09 С 4 20 км 8/0
[]
+19.6 +16.2 81 +22 +22 комфорт 1012.0 996.8
18 16.09 С 2 20 км ясно +18.1 +15.3 84 +19 +19 1012.6 997.2

 

Местоположение метеостанции Намвон (Корея): широта 35.40 долгота 127.33 высота над уровнем моря 91 м.

В архиве по умолчанию представлена погода в Намвоне за последнюю неделю. Архивные данные за месяц целиком и за предыдущие месяцы, начиная с января 2011 года, Вы можете получить, выбрав интересующий диапазон дат из раскрывающегося списка и нажав кнопку "Ввод!".


*Определитесь, кто Вы:
робот инопланетянин человек

Внимание! Время в таблицах - всемирное. Для получения местного времени необходимо прибавить поправку, которая равна 9 ч.

Смотрите также архив погоды в соседних городах и на ближайших метеорологических станциях:

Погода в Сунчхоне (Корея) (38 км)
Погода в Чоныпе (Корея) (45 км)
Погода в Кванджу (Корея) (47 км)
Погода в Чонджу (Корея) (49 км)
Погода в Кочхане (Корея) (57 км)
Погода в Чинхэгу (Корея) (60 км)
Погода в Чинджу (Корея) (74 км)
Погода в Йосу (Корея) (84 км)
Погода в Кунсане (Корея) (84 км)
Погода в Мокпхо (Корея) (108 км)

Пояснения к столбцам:

Ветер - указаны скорость ветра в м/с - средняя за 10 мин, порывы в срок и между сроками (в фигурных скобках) и направление, откуда дует ветер: С - северный, СВ - северо-восточный, В - восточный, ЮВ - юго-восточный, Ю - южный, ЮЗ - юго-западный, З - западный, СЗ - северо-западный.
Видимость - горизонтальная дальность видимости в метрах или километрах. При видимости от 1 до 10 км при отсутствии осадков обычно наблюдается дымка, при ухудшении видимости до 1 км и менее - туман. В сухую погоду видимость может ухудшаться дымом, пылью или мглою.
Явления - указаны атмосферные явления, наблюдавшиеся в срок или в последний час перед сроком; фигурными скобками обозначены явления, наблюдавшиеся между сроками (за 1-3 часа до срока); квадратными скобками обозначены град или гололедные отложения с указанием их диаметра в мм.
Облачность - указаны через наклонную черту общая и нижняя облачность в баллах и высота нижней границы облаков в метрах; квадратными скобками обозначены формы облаков: Ci - перистые, Cs - перисто-слоистые, Cc - перисто-кучевые, Ac - высококучевые, As - высокослоистые, Sc - слоисто-кучевые, Ns - слоисто-дождевые, Cu - кучевые, Cb - кучево-дождевые. Подробнее классификацию облаков см. в Атласе облаков (PDF).
T - Температура воздуха - температура, измеренная на высоте 2 м над землей.
Td - Температура точки росы - температура, при понижении до которой содержащийся в воздухе водяной пар достигнет насыщения.
f - Относительная влажность воздуха - влажноcть воздуха, измеренная на высоте 2 м над землей.
Te - Эффективная температура - температура, которую ощущает одетый по сезону человек в тени. Характеристика душности погоды. При расчете учитывается влияние влажности воздуха и скорости ветра на теплоощущения человека.
Tes - Эффективная температура на солнце - температура, которую ощущает человек, с поправкой на солнечный нагрев. Характеристика знойности погоды. Зависит от высоты солнца над горизонтом, облачности и скорости ветра. Ночью, в пасмурную погоду, а также при ветре 12 м/с и более поправка равна нулю.
P - Атмосферное давление - приведенное к уровню моря атмосферное давление.
Po - Атмосферное давление - измеренное на уровне метеостанции атмосферное давление.
Tmin - Минимальная температура - минимум температуры воздуха на высоте 2 м над землей.
Tmax - Максимальная температура - максимум температуры воздуха на высоте 2 м над землей.
R - Количество осадков - Количество выпавших осадков за период времени, мм. При наведении курсора мыши на число - период времени, за который выпало указанное количество осадков.
R24 - Количество осадков - Количество выпавших осадков за 24 часа, мм.
S - Снежный покров - Высота снежного покрова, см. При наведении курсора мыши на число - состояние снежного покрова и степень покрытия местности в баллах.